Stations météo

réclame
Mon MeteoGroup
Messina, Italie (16420): Température de l'air & dewpoint: 14.06.2018 17:00:00 - 20.06.2018 17:00:00 (CEST)Messina, Italie (16420): Vitesse du vent: 14.06.2018 17:00:00 - 20.06.2018 17:00:00 (CEST)Messina, Italie (16420): Direction du vent: 14.06.2018 17:00:00 - 20.06.2018 17:00:00 (CEST)Messina, Italie (16420): reduced air pressure: 14.06.2018 17:00:00 - 20.06.2018 17:00:00 (CEST)Messina, Italie (16420): visibility: 14.06.2018 17:00:00 - 20.06.2018 17:00:00 (CEST)Messina, Italie (16420): Ensoleillement: 14.06.2018 17:00:00 - 20.06.2018 17:00:00 (CEST)
Date & Time tt [°C] td [°C] ff [km/h] ff [knt] dd ppp [hPa] vv [km] sd [min]
20.06.2018 17:00:00 24,6 18,5 11 6 SE 1017,0 20 60
20.06.2018 16:00:00 24,6 18,8 11 6 S 1016,2 16 36
20.06.2018 15:00:00 23,4 20,2 15 8 SW 1016,8 10 6
20.06.2018 14:00:00 24,0 19,9 9 5 SSE 1017,5 10 0
20.06.2018 13:00:00 25,8 20,6 15 8 ENE 1017,0 10 6
20.06.2018 12:00:00 26,2 20,1 18 10 ENE 1016,9 12 54
20.06.2018 11:00:00 26,2 20,1 18 10 ENE 1016,7 12 54
20.06.2018 10:00:00 25,0 20,3 18 10 ENE 1016,6 12 60
20.06.2018 09:00:00 24,2 18,4 8 4 N 1016,6 14 60
20.06.2018 08:00:00 22,8 19,0 8 4 NW 1016,3 14 0
20.06.2018 07:00:00 22,2 18,6 9 5 NW 1016,2 14 0
20.06.2018 06:00:00 22,0 18,4 5 3 N 1015,7 12 -
20.06.2018 05:00:00 22,2 18,2 8 4 N 1015,5 13 -
20.06.2018 04:00:00 22,0 18,8 5 3 N 1015,6 12 -
20.06.2018 03:00:00 22,0 19,4 11 6 NE 1015,5 12 -
20.06.2018 02:00:00 22,0 19,4 5 3 NNE 1015,5 12 -
20.06.2018 01:00:00 22,0 19,2 2 1 N 1015,5 10 -
20.06.2018 00:00:00 21,8 18,8 4 2 NNE 1015,5 12 -
19.06.2018 23:00:00 21,8 18,8 8 4 N 1015,4 12 -
19.06.2018 22:00:00 22,0 18,8 11 6 NE 1015,1 12 -
19.06.2018 21:00:00 22,0 18,6 4 2 NNE 1014,6 12 -
19.06.2018 20:00:00 22,6 20,1 4 2 NE 1014,6 10 0
19.06.2018 19:00:00 22,8 20,2 9 5 NE 1014,5 12 0
19.06.2018 18:00:00 22,6 20,1 8 4 ENE 1014,3 12 0
19.06.2018 17:00:00 22,6 20,3 5 3 NNW 1014,3 10 0
19.06.2018 16:00:00 23,8 20,9 15 8 NE 1014,2 10 0
19.06.2018 15:00:00 23,6 20,7 8 4 NNW 1014,3 12 0
19.06.2018 14:00:00 25,4 19,5 13 7 ENE 1014,2 14 18
19.06.2018 13:00:00 26,0 18,2 11 6 NW 1013,8 10 60
19.06.2018 12:00:00 25,0 18,2 13 7 WNW 1014,1 18 60
19.06.2018 11:00:00 25,0 18,2 15 8 N 1013,7 20 60
19.06.2018 10:00:00 24,4 18,8 15 8 N 1013,3 18 60
19.06.2018 09:00:00 23,0 18,5 11 6 NW 1013,3 18 36
19.06.2018 08:00:00 22,0 18,4 8 4 NNW 1013,2 16 48
19.06.2018 07:00:00 21,0 18,0 11 6 NNW 1012,7 14 -
19.06.2018 06:00:00 20,8 18,2 13 7 NW 1012,5 12 -
19.06.2018 05:00:00 20,8 18,4 8 4 NNE 1012,7 10 -
19.06.2018 04:00:00 21,0 18,4 8 4 ENE 1012,7 8 -
19.06.2018 03:00:00 21,4 19,0 8 4 N 1012,8 9 -
19.06.2018 02:00:00 21,8 19,2 9 5 NW 1013,1 9 -
19.06.2018 01:00:00 22,0 19,4 11 6 NW 1013,3 12 -
19.06.2018 00:00:00 21,8 19,2 8 4 NNW 1013,1 12 -
18.06.2018 23:00:00 21,8 19,2 8 4 NNW 1013,0 10 -
18.06.2018 22:00:00 22,0 19,4 11 6 NW 1012,5 12 -
18.06.2018 21:00:00 22,2 19,7 5 3 N 1012,3 10 -
18.06.2018 20:00:00 22,4 20,7 5 3 NNW 1012,3 10 0
18.06.2018 19:00:00 24,6 19,9 5 3 NNW 1012,2 8 36
18.06.2018 18:00:00 25,6 19,2 11 6 NNE 1012,2 14 60
18.06.2018 17:00:00 26,0 16,3 11 6 NNE 1012,2 10 60
18.06.2018 16:00:00 26,0 18,2 11 6 NNE 1012,3 14 60
18.06.2018 15:00:00 26,2 18,9 11 6 N 1012,4 12 60
18.06.2018 14:00:00 25,8 18,5 15 8 N 1012,4 12 48
18.06.2018 13:00:00 25,2 18,4 16 9 WNW 1012,4 12 54
18.06.2018 12:00:00 24,2 18,4 18 10 NW 1012,4 14 24
18.06.2018 11:00:00 22,8 17,9 18 10 NW 1012,4 10 0
18.06.2018 10:00:00 22,6 17,7 21 11 WNW 1012,4 14 0
18.06.2018 09:00:00 22,0 17,2 22 12 WNW 1012,4 12 0
18.06.2018 08:00:00 21,6 17,2 22 12 WNW 1012,4 12 0
18.06.2018 07:00:00 21,2 17,2 16 9 WNW 1012,4 12 0
18.06.2018 06:00:00 21,0 17,6 18 10 WNW 1012,5 12 -
18.06.2018 05:00:00 21,0 17,0 22 12 NW 1012,6 14 -
18.06.2018 04:00:00 21,0 16,6 18 10 NW 1012,6 14 -
18.06.2018 03:00:00 21,4 17,2 8 4 NW 1012,6 14 -
18.06.2018 02:00:00 21,4 17,6 5 3 NW 1012,7 16 -
18.06.2018 01:00:00 21,6 18,4 18 10 NW 1013,2 16 -
18.06.2018 00:00:00 21,8 18,4 21 11 NW 1013,2 16 -
17.06.2018 23:00:00 22,0 18,8 21 11 NW 1013,3 16 -
17.06.2018 22:00:00 22,0 18,6 21 11 NW 1013,3 16 -
17.06.2018 21:00:00 22,0 18,4 15 8 WNW 1013,1 16 -
17.06.2018 20:00:00 22,2 18,0 18 10 WNW 1012,5 16 0
17.06.2018 19:00:00 23,2 18,3 16 9 NW 1012,3 16 60
17.06.2018 18:00:00 24,0 18,4 16 9 NW 1012,3 16 36
17.06.2018 17:00:00 23,0 19,6 13 7 WNW 1013,0 10 0
17.06.2018 16:00:00 24,0 19,3 8 4 NE 1013,0 7 0
17.06.2018 15:00:00 24,2 17,2 11 6 NNW 1012,5 14 36
17.06.2018 14:00:00 24,4 16,4 13 7 NNW 1012,5 14 60
17.06.2018 13:00:00 24,4 17,2 9 5 NW 1012,4 14 60
17.06.2018 12:00:00 24,0 17,7 15 8 WNW 1012,2 14 30
17.06.2018 11:00:00 23,2 16,3 8 4 NW 1012,2 14 42
17.06.2018 10:00:00 22,6 17,1 11 6 WNW 1012,3 14 36
17.06.2018 09:00:00 21,4 16,6 9 5 NW 1011,7 12 18
17.06.2018 08:00:00 21,0 16,8 8 4 NW 1011,7 12 0
17.06.2018 07:00:00 20,6 16,4 22 12 NW 1011,3 12 0
17.06.2018 06:00:00 20,2 16,7 24 13 NW 1011,4 12 0
17.06.2018 05:00:00 20,0 16,7 18 10 NW 1011,3 12 -
17.06.2018 04:00:00 20,0 16,7 13 7 NW 1011,6 15 -
17.06.2018 03:00:00 19,8 16,2 8 4 N 1011,6 12 -
17.06.2018 02:00:00 20,0 16,8 13 7 WNW 1012,2 12 -
17.06.2018 01:00:00 20,0 16,8 13 7 NW 1012,4 12 -
17.06.2018 00:00:00 19,2 16,2 5 3 WSW 1011,5 12 -
16.06.2018 23:00:00 20,0 17,4 15 8 NE 1011,5 2,0 -
16.06.2018 22:00:00 20,6 18,4 9 5 N 1011,3 3,0 -
16.06.2018 21:00:00 21,8 18,4 16 9 NW 1010,4 6 -
16.06.2018 20:00:00 22,2 18,4 15 8 NW 1009,6 10 0
16.06.2018 19:00:00 22,2 18,6 24 13 NW 1009,3 10 0
16.06.2018 18:00:00 23,4 18,5 22 12 NW 1009,3 12 0
16.06.2018 17:00:00 23,6 18,7 18 10 NW 1009,4 12 42
16.06.2018 16:00:00 24,4 18,6 18 10 NW 1009,5 12 48
16.06.2018 15:00:00 24,0 17,0 22 12 NW 1009,7 16 60
16.06.2018 14:00:00 24,4 15,9 18 10 NW 1009,7 16 36
16.06.2018 13:00:00 24,0 16,0 24 13 NW 1009,7 14 60
16.06.2018 12:00:00 23,4 16,7 15 8 NW 1009,5 12 60
16.06.2018 11:00:00 22,4 17,1 9 5 N 1009,4 10 30
16.06.2018 10:00:00 20,8 17,0 4 2 SSE 1009,5 10 0
16.06.2018 09:00:00 18,8 15,3 4 2 N 1009,5 8 0
16.06.2018 08:00:00 18,4 14,9 4 2 N 1009,4 8 0
16.06.2018 07:00:00 17,8 14,7 4 2 N 1009,4 8 -
16.06.2018 06:00:00 17,4 14,3 8 4 N 1009,4 5 -
16.06.2018 05:00:00 17,6 15,8 4 2 N 1009,1 2,0 -
16.06.2018 04:00:00 18,6 18,1 11 6 WSW 1008,3 8 -
16.06.2018 03:00:00 18,8 18,3 11 6 ENE 1009,3 8 -
16.06.2018 02:00:00 21,8 19,7 11 6 NW 1008,4 10 -
16.06.2018 01:00:00 21,6 19,9 15 8 WNW 1008,6 10 -
16.06.2018 00:00:00 21,4 20,0 8 4 NNW 1008,7 10 -
15.06.2018 23:00:00 21,8 19,5 16 9 WNW 1008,4 10 -
15.06.2018 22:00:00 21,8 19,0 13 7 NW 1008,3 12 -
15.06.2018 21:00:00 21,8 18,8 15 8 NW 1007,4 12 -
15.06.2018 20:00:00 22,2 18,6 15 8 NW 1007,2 15 0
15.06.2018 19:00:00 23,2 16,3 11 6 NW 1007,0 15 6
15.06.2018 18:00:00 23,4 18,7 15 8 NW 1006,8 15 60
15.06.2018 17:00:00 23,8 18,2 16 9 NW 1006,5 15 60
15.06.2018 16:00:00 24,8 17,8 16 9 NNE 1006,7 15 42
15.06.2018 15:00:00 24,2 19,3 11 6 NNW 1006,6 15 18
15.06.2018 14:00:00 25,0 17,2 15 8 NNW 1006,3 12 0
15.06.2018 13:00:00 25,0 17,2 15 8 NNW 1006,3 15 36
15.06.2018 12:00:00 24,2 17,2 9 5 N 1006,2 15 48
15.06.2018 11:00:00 23,2 17,7 11 6 N 1006,1 10 42
15.06.2018 10:00:00 22,4 17,5 9 5 NNE 1005,9 15 42
15.06.2018 09:00:00 20,4 18,7 9 5 ENE 1005,5 12 6
15.06.2018 08:00:00 20,0 17,4 5 3 N 1005,5 18 12
15.06.2018 07:00:00 19,0 16,6 5 3 NNW 1005,6 16 0
15.06.2018 06:00:00 19,4 17,7 8 4 NW 1005,5 18 0
15.06.2018 05:00:00 19,8 17,2 4 2 NW 1005,5 13 -
15.06.2018 04:00:00 19,8 18,5 4 2 NNE 1005,7 12 -
15.06.2018 03:00:00 19,8 18,5 5 3 NE 1005,9 12 -
15.06.2018 02:00:00 19,8 16,7 8 4 WNW 1006,1 12 -
15.06.2018 01:00:00 20,0 16,8 8 4 N 1006,3 12 -
15.06.2018 00:00:00 19,8 17,0 5 3 NE 1006,3 12 -
14.06.2018 23:00:00 19,8 17,8 4 2 N 1006,3 12 -
14.06.2018 22:00:00 19,6 17,4 9 5 NE 1006,2 12 -
14.06.2018 21:00:00 21,0 17,2 4 2 N 1005,5 12 -
14.06.2018 20:00:00 21,4 17,2 5 3 N 1005,3 12 6
14.06.2018 19:00:00 22,2 17,6 4 2 N 1005,3 12 48
14.06.2018 18:00:00 21,0 17,6 9 5 NNW 1005,3 12 0
14.06.2018 17:00:00 21,8 17,4 4 2 N 1005,4 9 0

tt = Température de l'air
td = dewpoint
ff = Vitesse du vent
dd = Direction du vent
ppp = reduced air pressure
vv = visibility
sd = Ensoleillement

stations d'obs. à proximité